Fort Polk, LA

11:19 AM CDT on October 20, 2019 (GMT -0500)
Fort Polk

Weather History for KAQV - August, 2019

Change the Weather History Date:

Saturday, August 31, 2019

  Actual Average (WUND) Record (WUND)
Temperature  
Mean Temperature 82 °F -  
Max Temperature 96 °F - - (-1)
Min Temperature 70 °F - - (-1)
Cooling Degree Days 16    
Growing Degree Days 32 (Base 50)    
Moisture  
Dew Point 70 °F    
Average Humidity 73    
Maximum Humidity 97    
Minimum Humidity 42    
Precipitation  
Precipitation 0.00 in - - ()
Sea Level Pressure  
Sea Level Pressure 30.00 in    
Wind  
Wind Speed 0 mph (NE)    
Max Wind Speed 5 mph    
Max Gust Speed -    
Visibility 7 miles    
Events Thunderstorm    
Averages and records for this station are not official NWS values.
T = Trace of Precipitation, MM = Missing Value Source: NWS Daily Summary

Daily Weather History Graph

Daily Weather History Graph

Search for Another Location

Airport or City:

Astronomy

Aug. 31, 2019 Rise Set
Actual Time 6:48 AM CDT 7:38 PM CDT
Civil Twilight 6:23 AM CDT 8:02 PM CDT
Nautical Twilight 5:54 AM CDT 8:32 PM CDT
Astronomical Twilight 5:24 AM CDT 9:02 PM CDT
Moon 8:03 AM CDT (8/31) 8:56 PM CDT (8/31)
Length of Visible Light 13h 39m
Length of Day
12h 49m
New Moon, 3% of the Moon is Illuminated
Aug 31
New Moon
Sep 5
First Quarter
Sep 13
Full
Sep 21
Last Quarter
Sep 28
New

Hourly Weather History & Observations

Time (CDT) Temp. Heat Index Dew Point Humidity Pressure Visibility Wind Dir Wind Speed Gust Speed Precip Events Conditions
12:56 AM 73.0 °F - 70.0 °F 90% 30.00 in 8.0 mi Calm Calm - N/A   Clear
1:56 AM 72.0 °F - 70.0 °F 93% 30.01 in 6.0 mi Calm Calm - N/A   Clear
2:56 AM 72.0 °F - 70.0 °F 93% 30.01 in 6.0 mi Calm Calm - N/A   Clear
3:56 AM 71.1 °F - 69.1 °F 93% 30.01 in 5.0 mi Calm Calm - N/A   Clear
4:56 AM 71.1 °F - 69.1 °F 93% 30.01 in 4.0 mi Calm Calm - N/A   Clear
5:19 AM 71.1 °F - 69.1 °F 93% 30.01 in 2.5 mi Calm Calm - N/A   Clear
5:30 AM 71.1 °F - 69.1 °F 93% 30.01 in 3.0 mi Calm Calm - N/A   Clear
5:56 AM 70.0 °F - 69.1 °F 97% 30.01 in 3.0 mi Calm Calm - N/A   Clear
6:56 AM 70.0 °F - 68.0 °F 93% 30.02 in 3.0 mi Calm Calm - N/A   Clear
8:56 AM 81.0 °F 85.8 °F 73.0 °F 77% 30.04 in 10.0 mi Calm Calm - N/A   Clear
9:56 AM 87.1 °F 93.6 °F 72.0 °F 61% 30.03 in 10.0 mi Calm Calm - N/A   Clear
10:56 AM 91.0 °F 97.6 °F 71.1 °F 52% 30.03 in 10.0 mi Variable 4.6 mph - N/A   Scattered Clouds
11:56 AM 91.0 °F 95.6 °F 69.1 °F 48% 30.03 in 10.0 mi Calm Calm - N/A   Mostly Cloudy
12:56 PM 93.0 °F 97.4 °F 68.0 °F 44% 30.02 in 10.0 mi Variable 3.5 mph - N/A   Scattered Clouds
1:56 PM 91.0 °F 94.3 °F 66.9 °F 45% 30.00 in 10.0 mi Calm Calm - N/A   Scattered Clouds
2:56 PM 93.0 °F 96.4 °F 66.9 °F 42% 29.98 in 10.0 mi Calm Calm - N/A   Mostly Cloudy
3:56 PM 93.0 °F 96.4 °F 66.9 °F 42% 29.96 in 10.0 mi Variable 3.5 mph - N/A   Scattered Clouds
4:56 PM 93.9 °F 98.6 °F 68.0 °F 43% 29.95 in 10.0 mi NE 4.6 mph - N/A   Partly Cloudy
5:37 PM 90.0 °F 94.5 °F 69.1 °F 50% 29.96 in 10.0 mi Calm Calm - N/A Thunderstorm Thunderstorm
6:56 PM 82.9 °F 88.0 °F 72.0 °F 69% 29.95 in 3.0 mi Calm Calm - N/A   Haze
7:56 PM 80.1 °F 84.2 °F 73.0 °F 79% 29.96 in 10.0 mi Calm Calm - N/A   Mostly Cloudy
8:56 PM 78.1 °F - 72.0 °F 81% 29.99 in 5.0 mi Calm Calm - N/A   Haze
9:56 PM 77.0 °F - 72.0 °F 84% 29.99 in 5.0 mi Calm Calm - N/A   Haze
10:56 PM 75.9 °F - 71.1 °F 85% 29.99 in 10.0 mi Calm Calm - N/A   Clear
11:56 PM 75.0 °F - 71.1 °F 87% 29.99 in 10.0 mi Calm Calm - N/A   Clear